Location: Brede
(50.9167°N, 0.6000°E)
Time: 21:19:38
(UTC+00:00)

Altair - Pass Details

Date: 04 August 2021
Orbit: 1501 x 1682 km, 47.2° (Epoch: 22 September)

Event Time Altitude Azimuth Distance (km) Brightness Sun altitude
Exits shadow 22:25:23 12° 112° (ESE) 3,550 9.0 -18.8°
Drops below altitude 10° 22:27:14 10° 101° (E) 3,722 9.2 -18.9°
Sets 22:32:27 0° 76° (ENE) 4,678 9.9 -19.2°
